Terug naar catalogus

MinXSS-2

MINXSS-2

ActiefAmateurradioSSO
NORAD 43758·PAYLOAD·🇺🇸 United States

Gelanceerd Dec 3, 2018 vanaf Vandenberg Space Force Base

Loading…

Volgende Passages (komende 24 uur)

TLE

VersSource: AMSAT

Epoch: Sep 14, 2026, 10:34 UTC

1 43758U 18099A   26257.44077921  .00036469  00000-0  57983-3 0  9993
2 43758  97.4451 336.7134 0005111 291.5472  68.5236 15.53218013427950

Volg MinXSS-2 in realtime met AllMySat

Download on the App Store